{"data":{"norad_id":62695,"epoch":"2026-09-22T17:38:41.483904Z","epoch_age_seconds":126440,"freshness":"FRESH","line1":"1 62695U 25009CQ  26265.73520236  .00000963  00000+0  97049-4 0  9993","line2":"2 62695  97.7009 341.6174 0003717  55.6212 304.5359 14.93402096 91857","mean_motion":14.93402096,"eccentricity":0.0003717,"inclination_deg":97.7009,"raan_deg":341.6174,"arg_perigee_deg":55.6212,"mean_anomaly_deg":304.5359,"bstar":9.7049e-5,"rev_number":9185,"period_min":96.42413144169,"perigee_km":584.74785043761,"apogee_km":589.92598374758,"semimajor_km":6965.4739170926,"source":"CELESTRAK","updated_at":"2026-09-23T09:00:21.580783Z"}}